WESTMAR Weather Reports


time (UTC)temp
C
wind
direction
speed
KPH
gust
KPH
rain 1hr
cm
rain 24hr
cm
rain mn
cm
humidity
%
barometer
mb
20260504190054 26 0 0.0 3.2 0.00 0.00 0.00 49 1007.7
20260504184552 25 187 1.6 6.4 0.00 0.00 0.00 51 1007.8
20260504183052 25 0 0.0 3.2 0.00 0.00 0.00 51 1007.9
20260504181558 25 138 1.6 6.4 0.00 0.00 0.00 52 1007.8
20260504180053 24 0 0.0 6.4 0.00 0.00 0.00 53 1007.9
20260504174545 23 0 0.0 8.0 0.00 0.00 0.00 55 1007.8
20260504173050 23 0 0.0 4.8 0.00 0.00 0.00 54 1007.7
20260504171546 23 0 0.0 0.0 0.00 0.00 0.00 54 1007.7
20260504081550 11 0 0.0 1.6 0.00 0.00 0.00 76 1006.7
20260504044549 18 0 0.0 4.8 0.00 0.00 0.00 56 1007.0
20260504043051 18 123 0.0 8.0 0.00 0.00 0.00 57 1007.0
20260504041548 17 0 0.0 0.0 0.00 0.00 0.00 62 1007.1
20260504040131 17 0 0.0 0.0 0.00 0.00 0.00 69 1007.0
20260504034548 17 0 0.0 0.0 0.00 0.00 0.00 69 1007.0
20260504033049 18 0 0.0 0.0 0.00 0.00 0.00 69 1007.0
20260504031556 20 0 0.0 0.0 0.00 0.00 0.00 65 1007.0
20260504030049 21 0 0.0 0.0 0.00 0.00 0.00 60 1007.0
20260504024551 23 0 0.0 0.0 0.00 0.00 0.00 52 1007.0
20260504023046 24 0 0.0 0.0 0.00 0.00 0.00 45 1007.0
20260504021542 25 0 0.0 0.0 0.00 0.00 0.00 43 1007.0
20260504020106 26 0 0.0 0.0 0.00 0.00 0.00 39 1007.1
20260504014554 27 0 0.0 0.0 0.00 0.00 0.00 38 1007.1
20260504013048 27 0 0.0 0.0 0.00 0.00 0.00 37 1007.2
20260504011545 28 0 0.0 3.2 0.00 0.00 0.00 37 1007.3
20260504010050 29 0 0.0 4.8 0.00 0.00 0.00 35 1007.4
20260504004542 30 0 0.0 3.2 0.00 0.00 0.00 34 1007.7
20260504003051 29 0 0.0 4.8 0.00 0.00 0.00 35 1008.1
20260504001553 30 0 0.0 1.6 0.00 0.00 0.00 36 1008.4
20260504000051 30 0 0.0 1.6 0.00 0.00 0.00 35 1008.4
20260503234620 30 0 0.0 3.2 0.00 0.00 0.00 36 1008.5
20260503233050 30 0 0.0 1.6 0.00 0.00 0.00 36 1008.6
20260503231552 30 0 0.0 4.8 0.00 0.00 0.00 37 1008.8
20260503230048 30 179 0.0 3.2 0.00 0.00 0.00 36 1009.1
20260503224546 30 24 0.0 6.4 0.00 0.00 0.00 36 1009.2
20260503223050 30 0 0.0 3.2 0.00 0.00 0.00 37 1009.4
20260503221556 29 0 0.0 3.2 0.00 0.00 0.00 37 1009.6
20260503220051 30 0 0.0 4.8 0.00 0.00 0.00 37 1009.7
20260503214544 28 0 0.0 6.4 0.00 0.00 0.00 40 1009.9
20260503213044 28 148 0.0 6.4 0.00 0.00 0.00 40 1010.1
20260503211548 28 0 0.0 8.0 0.00 0.00 0.00 40 1010.1
20260503210047 28 234 0.0 6.4 0.00 0.00 0.00 41 1010.3
20260503204546 27 154 0.0 8.0 0.00 0.00 0.00 42 1010.6
20260503203056 27 0 0.0 6.4 0.00 0.00 0.00 42 1010.8
20260503201551 27 208 0.0 4.8 0.00 0.00 0.00 43 1010.9
20260503200054 26 0 0.0 6.4 0.00 0.00 0.00 45 1011.1
20260503194558 26 0 0.0 4.8 0.00 0.00 0.00 44 1011.4
20260503193056 27 170 0.0 6.4 0.00 0.00 0.00 44 1011.5
20260503191554 25 0 0.0 4.8 0.00 0.00 0.00 46 1011.6